TimeMST,TemperatureF,Dew PointF,Humidity,Sea Level PressureIn,VisibilityMPH,Wind Direction,Wind SpeedMPH,Gust SpeedMPH,PrecipitationIn,Events,Conditions,WindDirDegrees,DateUTC
12:00 AM,28.4,18.5,66,29.67,-9999.0,WSW,5.8,-,N/A,,Unknown,240,2014-01-11 07:00:00
1:00 AM,24.3,23.0,95,29.63,-9999.0,WSW,9.2,18.4,N/A,,Unknown,240,2014-01-11 08:00:00
2:00 AM,24.3,23.2,96,29.56,-9999.0,WSW,8.1,-,N/A,,Unknown,240,2014-01-11 09:00:00
3:00 AM,23.9,23.4,98,29.50,-9999.0,WSW,5.8,-,0.01,,Unknown,250,2014-01-11 10:00:00
4:00 AM,25.7,23.5,92,29.44,-9999.0,WSW,8.1,-,0.02,,Unknown,240,2014-01-11 11:00:00
5:00 AM,24.1,23.7,99,29.38,-9999.0,WSW,10.4,-,0.01,,Unknown,240,2014-01-11 12:00:00
6:00 AM,24.6,24.4,99,29.33,-9999.0,SW,9.2,-,0.01,,Unknown,230,2014-01-11 13:00:00
7:00 AM,25.0,25.0,100,29.28,-9999.0,SW,6.9,-,0.02,,Unknown,230,2014-01-11 14:00:00
8:00 AM,25.5,25.5,100,29.23,-9999.0,SW,5.8,-,0.04,,Unknown,220,2014-01-11 15:00:00
9:00 AM,25.9,25.9,100,29.19,-9999.0,SW,4.6,-,0.03,,Unknown,220,2014-01-11 16:00:00
10:00 AM,26.8,26.8,100,29.16,-9999.0,SW,3.5,-,0.03,,Unknown,230,2014-01-11 17:00:00
11:00 AM,28.9,28.9,100,29.07,-9999.0,SW,3.5,-,0.01,,Unknown,230,2014-01-11 18:00:00
12:00 PM,30.9,30.9,100,28.98,-9999.0,WSW,4.6,-,0.09,,Unknown,240,2014-01-11 19:00:00
1:00 PM,31.8,31.8,100,29.03,-9999.0,West,9.2,-,0.03,,Unknown,260,2014-01-11 20:00:00
2:00 PM,-9999,-9999,N/A,29.05,-9999.0,WSW,6.9,-,0.01,,Unknown,240,2014-01-11 21:00:00
3:00 PM,33.3,27.0,78,29.10,-9999.0,West,5.8,-,N/A,,Unknown,260,2014-01-11 22:00:00
4:00 PM,31.8,25.7,78,29.17,-9999.0,WSW,4.6,-,N/A,,Unknown,240,2014-01-11 23:00:00
5:00 PM,28.4,25.5,89,29.17,-9999.0,SSW,4.6,-,N/A,,Unknown,210,2014-01-12 00:00:00
6:00 PM,30.2,24.1,78,29.17,-9999.0,WSW,3.5,-,N/A,,Unknown,250,2014-01-12 01:00:00
7:00 PM,28.2,26.6,94,29.17,-9999.0,WSW,3.5,-,N/A,,Unknown,250,2014-01-12 02:00:00
8:00 PM,28.0,27.1,96,29.15,-9999.0,SSW,5.8,-,0.01,,Unknown,210,2014-01-12 03:00:00
9:00 PM,27.9,27.1,97,29.15,-9999.0,SW,5.8,-,N/A,,Unknown,230,2014-01-12 04:00:00
10:00 PM,27.7,27.1,98,29.15,-9999.0,SW,4.6,-,0.01,,Unknown,230,2014-01-12 05:00:00
11:00 PM,29.3,27.1,92,29.14,-9999.0,SW,5.8,-,0.01,,Unknown,230,2014-01-12 06:00:00